{"data":{"norad_id":63826,"intl_designator":"2025-092Y","name":"STARLINK-33781","alt_names":[],"object_type":"PAYLOAD","status":"ACTIVE","operator":null,"country":"US","launch_date":"2025-05-04","launch_site_code":"AFETR","launch_vehicle":null,"mission":null,"orbit_class":"UNKNOWN","rcs_meters":null,"size_class":null,"mass_kg":null,"dimensions":null,"purposes":["comms"],"wikipedia_slug":null,"has_3d_model":false,"image_url":null,"decayed_at":null,"tle_current":{"epoch":"2026-05-25T04:59:50.843904Z","epoch_age_seconds":67647,"freshness":"FRESH","line1":"1 63826U 25092Y   26145.20822736  .00019732  00000+0  72425-3 0  9995","line2":"2 63826  43.0018 100.7074 0001327 273.6136  86.4564 15.27598578 60368","mean_motion":15.27598578,"eccentricity":0.0001327,"inclination_deg":43.0018,"raan_deg":100.7074,"arg_perigee_deg":273.6136,"mean_anomaly_deg":86.4564,"bstar":0.00072425,"rev_number":6036,"period_min":94.265602281806,"perigee_km":482.08299537501,"apogee_km":483.90393940106,"semimajor_km":6861.130467388,"source":"CELESTRAK","updated_at":"2026-05-25T13:38:20.144077Z"}}}